Location: Lane
(33.5226°N, 79.8788°W)
Time: 05:08:11
(UTC+00:00)

Transit 2A Rocket - Pass Details

Date: 10 October 2022
Orbit: 589 x 911 km, 66.7° (Epoch: 27 November)

Event Time Altitude Azimuth Distance (km) Brightness Sun altitude
Exits shadow 08:55:13 19° 25° (NNE) 1,419 6.7 -30.9°
Drops below altitude 10° 08:56:29 10° 26° (NNE) 1,924 7.5 -30.6°
Sets 08:58:44 0° 26° (NNE) 2,842 8.5 -30.2°
